Hourly Weather Centralnyy

Today, 19 June, Saturday

Time Temperature Precipitation Wind Pressure Humidity
00:00 +15°C° 0 mm 2 mps 758 mmHg 90%
01:00 +14°C° 0 mm 2 mps 758 mmHg 90%
02:00 +14°C° 0 mm 1 mps 758 mmHg 91%
03:00 +14°C° 0 mm 1 mps 758 mmHg 91%
04:00 +15°C° 0 mm 1 mps 758 mmHg 89%
05:00 +16°C° 0 mm 1 mps 758 mmHg 87%
06:00 +18°C° 0 mm 1 mps 758 mmHg 84%
07:00 +19°C° 0 mm 1 mps 758 mmHg 78%
08:00 +21°C° 0 mm 1 mps 759 mmHg 73%
09:00 +23°C° 0 mm 1 mps 759 mmHg 67%
10:00 +24°C° 0 mm 1 mps 758 mmHg 63%
11:00 +25°C° 0 mm 1 mps 758 mmHg 59%
12:00 +26°C° 0 mm 1 mps 758 mmHg 55%
13:00 +26°C° 0 mm 1 mps 758 mmHg 54%
14:00 +27°C° 0 mm 1 mps 757 mmHg 53%
15:00 +27°C° 0 mm 1 mps 757 mmHg 52%
16:00 +27°C° 0 mm 1 mps 757 mmHg 56%
17:00 +27°C° 0 mm 1 mps 757 mmHg 60%
18:00 +26°C° 0 mm 1 mps 757 mmHg 64%
19:00 +24°C° 0 mm 1 mps 757 mmHg 69%
20:00 +23°C° 0 mm 1 mps 757 mmHg 75%
21:00 +19°C° 0 mm 0 mps 757 mmHg 80%
22:00 +20°C° 0 mm 1 mps 757 mmHg 82%
23:00 +19°C° 0 mm 1 mps 757 mmHg 84%

Tomorrow, 20 June, Sunday

Time Temperature Precipitation Wind Pressure Humidity
00:00 +19°C° 0 mm 1 mps 757 mmHg 86%
01:00 +18°C° 0 mm 1 mps 757 mmHg 87%
02:00 +16°C° 0 mm 0 mps 757 mmHg 87%
03:00 +15°C° 0 mm 0 mps 757 mmHg 88%
04:00 +16°C° 0 mm 0 mps 757 mmHg 86%
05:00 +17°C° 0 mm 0 mps 757 mmHg 84%
06:00 +18°C° 0 mm 0 mps 757 mmHg 81%
07:00 +20°C° 0 mm 0 mps 757 mmHg 76%
08:00 +23°C° 0 mm 1 mps 757 mmHg 71%
09:00 +25°C° 0 mm 1 mps 757 mmHg 65%
10:00 +26°C° 0 mm 1 mps 757 mmHg 61%
11:00 +27°C° 0 mm 1 mps 757 mmHg 56%
12:00 +28°C° 0 mm 1 mps 756 mmHg 51%
13:00 +28°C° 0 mm 1 mps 756 mmHg 50%
14:00 +29°C° 0 mm 2 mps 756 mmHg 48%
15:00 +29°C° 0 mm 2 mps 756 mmHg 46%
16:00 +29°C° 0 mm 1 mps 755 mmHg 52%
17:00 +29°C° 0 mm 1 mps 755 mmHg 57%
18:00 +28°C° 0 mm 1 mps 755 mmHg 62%
19:00 +26°C° 0 mm 1 mps 755 mmHg 66%
20:00 +24°C° 0 mm 2 mps 755 mmHg 71%
21:00 +21°C° 0 mm 2 mps 755 mmHg 75%
22:00 +21°C° 0 mm 1 mps 755 mmHg 76%
23:00 +21°C° 0 mm 1 mps 755 mmHg 77%

Day after tomorrow, 21 June, Monday

Time Temperature Precipitation Wind Pressure Humidity
00:00 +20°C° 0 mm 1 mps 755 mmHg 78%
01:00 +20°C° 0 mm 1 mps 755 mmHg 79%
02:00 +20°C° 0 mm 1 mps 755 mmHg 80%
03:00 +19°C° 0 mm 1 mps 755 mmHg 81%
04:00 +19°C° 0 mm 2 mps 755 mmHg 82%
05:00 +20°C° 0 mm 2 mps 755 mmHg 82%
06:00 +20°C° 0 mm 2 mps 755 mmHg 82%
07:00 +23°C° 0 mm 2 mps 755 mmHg 77%
08:00 +24°C° 0 mm 2 mps 755 mmHg 72%
09:00 +26°C° 0 mm 3 mps 755 mmHg 67%
10:00 +27°C° 0 mm 2 mps 755 mmHg 62%
11:00 +28°C° 0 mm 2 mps 755 mmHg 57%
12:00 +29°C° 0 mm 2 mps 755 mmHg 51%
13:00 +30°C° 0 mm 2 mps 755 mmHg 51%
14:00 +30°C° 0 mm 2 mps 755 mmHg 50%
15:00 +30°C° 0 mm 2 mps 755 mmHg 49%
16:00 +30°C° 0 mm 2 mps 754 mmHg 54%
17:00 +29°C° 0 mm 2 mps 754 mmHg 60%
18:00 +29°C° 0 mm 2 mps 754 mmHg 65%
19:00 +27°C° 0 mm 2 mps 754 mmHg 70%
20:00 +25°C° 0 mm 2 mps 754 mmHg 75%
21:00 +23°C° 0 mm 2 mps 754 mmHg 80%
22:00 +21°C° 0 mm 2 mps 754 mmHg 82%
23:00 +21°C° 0 mm 2 mps 755 mmHg 84%

22 June, Tuesday

Time Temperature Precipitation Wind Pressure Humidity
00:00 +20°C° 0 mm 2 mps 755 mmHg 86%
01:00 +20°C° 0 mm 2 mps 755 mmHg 87%
02:00 +19°C° 0 mm 2 mps 755 mmHg 88%
03:00 +19°C° 0 mm 2 mps 755 mmHg 89%
04:00 +20°C° 0 mm 2 mps 755 mmHg 87%
05:00 +21°C° 0 mm 2 mps 755 mmHg 85%
06:00 +22°C° 0 mm 1 mps 755 mmHg 83%
07:00 +24°C° 0 mm 2 mps 755 mmHg 77%
08:00 +26°C° 0 mm 2 mps 755 mmHg 71%
09:00 +28°C° 0 mm 2 mps 755 mmHg 64%
10:00 +29°C° 0 mm 2 mps 755 mmHg 59%
11:00 +30°C° 0 mm 2 mps 755 mmHg 54%
12:00 +31°C° 0 mm 2 mps 755 mmHg 49%
13:00 +31°C° 0 mm 2 mps 755 mmHg 47%
14:00 +32°C° 0 mm 2 mps 755 mmHg 45%
15:00 +32°C° 0 mm 2 mps 755 mmHg 43%
16:00 +32°C° 0 mm 2 mps 754 mmHg 49%
17:00 +31°C° 0 mm 2 mps 754 mmHg 55%
18:00 +31°C° 0 mm 2 mps 754 mmHg 61%
19:00 +29°C° 0 mm 2 mps 754 mmHg 64%
20:00 +27°C° 0 mm 2 mps 754 mmHg 68%
21:00 +25°C° 0 mm 2 mps 754 mmHg 72%
22:00 +24°C° 0 mm 1 mps 754 mmHg 73%
23:00 +23°C° 0 mm 1 mps 754 mmHg 75%

23 June, Wednesday

Time Temperature Precipitation Wind Pressure Humidity
00:00 +23°C° 0 mm 1 mps 754 mmHg 76%
01:00 +22°C° 0 mm 1 mps 754 mmHg 78%
02:00 +22°C° 0 mm 1 mps 754 mmHg 81%
03:00 +21°C° 0 mm 1 mps 755 mmHg 83%
04:00 +22°C° 0 mm 1 mps 755 mmHg 82%
05:00 +23°C° 0 mm 1 mps 755 mmHg 82%
06:00 +24°C° 0 mm 2 mps 755 mmHg 81%
07:00 +25°C° 0 mm 2 mps 755 mmHg 75%
08:00 +27°C° 0 mm 2 mps 755 mmHg 68%
09:00 +29°C° 0 mm 2 mps 755 mmHg 62%
10:00 +30°C° 0 mm 2 mps 755 mmHg 57%
11:00 +31°C° 0 mm 2 mps 754 mmHg 52%
12:00 +32°C° 0 mm 2 mps 754 mmHg 47%
13:00 +34°C° 0 mm 2 mps 754 mmHg 46%
14:00 +34°C° 0 mm 2 mps 754 mmHg 45%
15:00 +34°C° 0 mm 2 mps 754 mmHg 44%
16:00 +34°C° 0 mm 2 mps 754 mmHg 49%
17:00 +32°C° 0 mm 2 mps 754 mmHg 55%
18:00 +32°C° 0 mm 2 mps 754 mmHg 61%
19:00 +30°C° 0 mm 2 mps 754 mmHg 66%
20:00 +28°C° 0 mm 2 mps 754 mmHg 71%
21:00 +26°C° 0 mm 1 mps 754 mmHg 76%
22:00 +25°C° 0 mm 1 mps 754 mmHg 78%
23:00 +25°C° 0 mm 1 mps 754 mmHg 79%

24 June, Thursday

Time Temperature Precipitation Wind Pressure Humidity
00:00 +24°C° 0 mm 1 mps 754 mmHg 80%
01:00 +24°C° 0 mm 1 mps 754 mmHg 82%
02:00 +23°C° 0 mm 1 mps 754 mmHg 83%
03:00 +23°C° 0 mm 1 mps 754 mmHg 85%
04:00 +24°C° 0 mm 1 mps 754 mmHg 84%
05:00 +24°C° 0 mm 1 mps 754 mmHg 83%
06:00 +25°C° 0 mm 1 mps 754 mmHg 82%
07:00 +27°C° 0 mm 1 mps 754 mmHg 75%
08:00 +28°C° 0 mm 2 mps 754 mmHg 69%
09:00 +30°C° 0 mm 2 mps 754 mmHg 62%
10:00 +31°C° 0 mm 1 mps 754 mmHg 58%
11:00 +32°C° 0 mm 1 mps 754 mmHg 54%
12:00 +33°C° 0 mm 1 mps 754 mmHg 49%
13:00 +33°C° 0 mm 1 mps 754 mmHg 48%
14:00 +34°C° 0 mm 1 mps 754 mmHg 46%
15:00 +34°C° 0 mm 1 mps 753 mmHg 45%
16:00 +34°C° 0.1 mm 2 mps 753 mmHg 50%
17:00 +34°C° 0.1 mm 2 mps 753 mmHg 54%
18:00 +33°C° 0.1 mm 3 mps 752 mmHg 59%
19:00 +29°C° 0.2 mm 2 mps 752 mmHg 61%
20:00 +26°C° 0.2 mm 2 mps 753 mmHg 64%
21:00 +23°C° 0.2 mm 1 mps 753 mmHg 67%
22:00 +23°C° 0 mm 1 mps 753 mmHg 67%
23:00 +23°C° 0 mm 1 mps 753 mmHg 66%
Show more

We Need Your Consent

Meteoprog and our Service Providers may store and access personal data such as cookies, device identifiers or other similar technologies on your device and process such data to personalise content and ads, as well as provide social media features and to analyse the traffic.

  • Store and/or access information on your device

    Cookies, device identifiers or other information can be stored or accessed on your device for the purposes indicated above.

  • Personalised ads and content, ad and content measurement, audience insights, and products development

    Ads and content can be personalised based on a profile. More data can be added to better personalise ads and content. Ad and content performance can be measured. Insights about the audience who saw the ads and content can be derived. Such data can be used to develop or improve user’s experience, systems and software.

By clicking ‘I Agree’ you will allow the use of indicated cookies, device identifiers, web beacons or other similar technologies. Your settings can be changed in the browser on your device.

For certain purposes, legitimate interests may be relied on, rather than consent. You can read more about this in our Privacy and Cookie Policy.